User: anonymous   Login
Location: Steilacoom
(47.1700°N, 122.5700°W)
Time: 02:30:56
(UTC-08:00)
Language:

NUDT-PHONESAT - Orbit

View from above orbital plane
View from above orbital plane
View from above satellite
View from above satellite

Ground track
Ground track

The orbit data is extracted from the following two-line orbital elements,

1 40900U 15049B   20023.14534184  .00001359  00000-0  59769-4 0  9997
2 40900  97.4347  35.3968 0013855 132.8130 292.4021 15.23529602240914
Epoch (UTC): 23 January 2020 03:29:17
Eccentricity: 0.0013855
inclination: 97.4347°
perigee height: 485 km
apogee height: 505 km
right ascension of ascending node: 35.3968°
argument of perigee: 132.8130°
revolutions per day: 15.23529602
mean anomaly at epoch: 292.4021°
orbit number at epoch: 24091

The dashed part of the orbit path shows where the satellite is in the earth's shadow,  

DLR